Regional Weather Roundup
Issued by NWS

Home | Current Version | Previous Version | Text Only | Print | Product List | Glossary Off
Versions: 1 2 3 4 5 6 7 8 9 10 11 12 13 14 15 16 17 18 19 20 21 22 23 24 25 26 27 28 29 30 31 32 33 34 35 36 37 38 39 40 41 42 43 44 45 46 47 48 49 50

000
ASUS43 KLSX 221707
RWRMO

WEATHER SUMMARY FOR MISSOURI
NATIONAL WEATHER SERVICE SPRINGFIELD MO
1200 PM CDT FRI MAY 22 2015

NOTE: "FAIR" INDICATES FEW OR NO CLOUDS BELOW 12,000 FEET WITH NO
       SIGNIFICANT WEATHER AND/OR OBSTRUCTIONS TO VISIBILITY.
       CURRENT SKY AND/OR WEATHER CONDITIONS ARE NOT AVAILABLE FOR
       CHILLICOTHE AND FARMINGTON.

MOZ001>031-035>038-043-044-053-054-221800-
...NORTHERN AND WESTERN MISSOURI...

CITY           SKY/WX    TMP DP  RH WIND       PRES   REMARKS
KANSAS CTY INT CLOUDY    59  49  69 SW7       30.28F
KANSAS C DTWN  CLOUDY    62  47  57 S7        30.27F
LEE`S SUMMIT   CLOUDY    60  45  57 SW9       30.29F
ST JOSEPH      CLOUDY    62  50  64 S8        30.27F
CHILLICOTHE      N/A     66  53  63 SW3       30.27R
KIRKSVILLE     CLOUDY    69  52  54 W5        30.25S

$$
MOZ066>068-077>081-088>096-101>105-221800-
...SOUTHWEST MISSOURI...

CITY           SKY/WX    TMP DP  RH WIND       PRES   REMARKS
SPRINGFIELD    CLOUDY    64  45  49 SE10      30.29S
JOPLIN         CLOUDY    62  46  55 SE6       30.29S

$$
MOZ032>034-039>042-045>050-055>058-069>072-221800-
...CENTRAL MISSOURI...

CITY           SKY/WX    TMP DP  RH WIND       PRES   REMARKS
COLUMBIA       CLOUDY    68  49  50 VRB5      30.27S
JEFFERSON CITY CLOUDY    69  47  45 NW5       30.27S
ROLLA          CLOUDY    65  50  58 SW6       30.27S
SEDALIA        CLOUDY    63  51  65 SW7       30.30R
WHITEMAN AFB   CLOUDY    62  48  60 SW8       30.28S
WARRENSBURG    CLOUDY    63  46  55 SW6       30.29S
OSAGE BEACH    CLOUDY    64  48  55 SW6       30.29F

$$
MOZ051-052-059>065-221800-
...EAST CENTRAL MISSOURI...

CITY           SKY/WX    TMP DP  RH WIND       PRES   REMARKS
ST LOUIS INTL  PTSUNNY   73  50  44 W5        30.25F
SPIRIT OF STL  PTSUNNY   71  50  47 S5        30.24F
ST CHARLES     MOSUNNY   72  50  45 W6        30.23F

$$
MOZ072>076-082>087-097>100-106>115-221800-
...SOUTH CENTRAL AND SOUTHEAST MISSOURI...

CITY           SKY/WX    TMP DP  RH WIND       PRES   REMARKS
CAPE GIRARDEAU SUNNY     67  49  52 VRB5      30.29S
FARMINGTON     MOSUNNY   70  52  52 S3        30.31F
POPLAR BLUFF   SUNNY     65  46  50 SE3       30.29F
WEST PLAINS    MOSUNNY   62  44  51 SE6       30.31F

$$


USA.gov is the U.S. government's official web portal to all federal, state and local government web resources and services.